Location: Mahannah Oil Field
(37.4664°N, 96.6003°W)
Time: 03:07:59
(UTC+00:00)

X-37B - Pass Details

Date: 04 December 2020
Orbit: 383 x 391 km, 45.1° (Epoch: 22 January)

Event Time Altitude Azimuth Distance (km) Brightness Sun altitude
Rises 23:45:08 0° 289° (WNW) 2,257 5.3 -7.5°
Reaches altitude 10° 23:47:33 10° 308° (NW) 1,406 3.8 -7.9°
Maximum altitude 23:49:59 20° 358° (N) 964 2.4 -8.4°
Enters shadow 23:52:16 11° 46° (NE) 1,365 2.8 -8.8°
